Regional Weather Roundup
Issued by NWS Wakefield, VA

Home | Current Version | Previous Version | Graphics & Text | Print | Product List | Glossary On
Versions: 1 2 3 4 5 6 7 8 9 10 11 12 13 14 15 16 17 18 19 20 21 22 23 24 25 26 27 28 29 30 31 32 33 34 35 36 37 38 39 40 41 42 43 44 45 46 47 48 49 50
000
ASUS41 KAKQ 210415
RWRAKQ

REGIONAL WEATHER ROUNDUP
NATIONAL WEATHER SERVICE WAKEFIELD VA
1100 PM EST TUE FEB 20 2018

Note: "fair" indicates few or no clouds below 12,000 feet with no
significant weather and/or obstructions to visibility. * = Denotes
station may not report precipitation (e.g., rain,snow,etc.),
thunder or fog.

VAZ042-051-052>054-056-210500-
NORTHERN VIRGINIA

CITY           SKY/WX    TMP DP  RH WIND       PRES   REMARKS
WASH NATIONAL  MOCLDY    61  56  83 S12       30.33F
DULLES         FAIR      64  58  80 S16G25    30.32S
FORT BELVOIR   FAIR      64  57  77 S5        30.34S
QUANTICO       FAIR      56  54  93 SW10      30.36S
FREDERICKSBRG* FAIR      65  60  85 SW9       30.35S
STAFFORD*      FAIR      65  61  88 SW6       30.40S
WARRENTON      FAIR      65  56  70 S8        30.34S
CULPEPER*      FAIR      65  56  74 S7        30.36R
MANASSAS*      FAIR      64  57  78 S9        30.34S
LEESBURG*      FAIR      64  59  82 S7        30.32S
WINCHESTER     FAIR      63  52  67 SW8       30.32R
FRONT ROYAL*   FAIR      64  54  68 S8G18     30.30S
LURAY*         FAIR      63  54  72 SW10      30.34S
$$

VAZ048-049-060>072-079>083-210500-
CENTRAL AND SOUTH CENTRAL VIRGINIA

CITY           SKY/WX    TMP DP  RH WIND       PRES   REMARKS
RICHMOND       MOCLDY    62  61  96 S9        30.40S
CHESTERFIELD*  MOCLDY    62  61  96 S7        30.41S
PETERSBURG*    NOT AVBL
HANOVER        FAIR      63  61  93 S7        30.40S
TAPPAHANNOCK*  FAIR      64  62  95 S6        30.39S
QUINTON*       MOCLDY    63  63 100 SE7       30.40F
CHARLOTTSVILLE FAIR      63  57  81 S10       30.36S
GORDONSVILLE*  FAIR      61  59  95 SW8       30.36F
ORANGE*        FAIR      61  55  82 CALM      30.36S
LOUISA*        FAIR      62  58  87 SW6       30.42S
BUMPASS*       FAIR      62  60  93 SW5       30.38R
FARMVILLE*     FAIR     N/A N/A N/A CALM      30.39S HAZE
CREWE*         CLOUDY    61  61 100 CALM      30.41S
FORT PICKETT*  CLOUDY    64  64 100 S7        30.42S
CHASE CITY*    CLOUDY    59  59 100 CALM      30.43S
CLARKSVILLE*   CLOUDY    61  61 100 CALM      30.42S
SOUTH HILL*    CLOUDY    61  61 100 S6        30.48S
LAWRENCEVILLE* FAIR      62  61  97 S3        30.42F
EMPORIA*         N/A     61  61 100 SE5       30.45S
$$

VAZ088>098-210500-
SOUTHEAST VIRGINIA

CITY           SKY/WX    TMP DP  RH WIND       PRES   REMARKS
NORFOLK        FAIR      66  63  90 S10       30.43S
VIRGINIA BEACH FAIR      66  62  87 S9        30.44S
NORFOLK NAVAL  FAIR      67  62  84 S8        30.45S
WEST POINT*    CLOUDY    61  59  95 SE7       30.42F
SALUDA*        FAIR      60  60 100 S6        30.41S
NEWPORT NEWS   FAIR      64  62  93 S12       30.42F
LANGLEY AFB    FAIR      64  64 100 S9        30.43S
FORT EUSTIS    FAIR      61  61  99 S6        30.40S
WILLIAMSBURG*    N/A     57  55  94 S5        30.43S
HR EXEC AP*    FAIR      66  64  93 S8        30.45S
FRANKLIN*      FAIR      60  59  98 S5        30.44F FOG
US460-WAKEFLD  FOG       55  55 100 CALM      30.43S VSB 1/4
$$

VAZ020-022-025-037-045-210500-
WEST CENTRAL AND SOUTHWEST VIRGINIA

CITY           SKY/WX    TMP DP  RH WIND       PRES   REMARKS
STAUNTON*      FAIR      59  53  80 CALM      30.39S
WAYNESBORO*    FAIR      61  52  72 SW8       30.38S
HOT SPRINGS VA FAIR      55  51  87 SW14G26   30.43S
LYNCHBURG      FOG       52  51  97 CALM      30.40F VSB 3/4
DANVILLE       FAIR      54  54 100 N5        30.42S
SOUTH BOSTON*  FAIR      57  56  95 CALM      30.42F
MARTINSVILLE   FAIR      50  49  98 CALM      30.44F FOG
ROANOKE        FAIR      58  55  90 CALM      30.42S
BLACKSBURG     FAIR      54  53  95 CALM      30.45F
DUBLIN*        FAIR      56  53  89 CALM      30.43S
MARION*        FAIR      58  49  71 CALM      30.44S
HILLSVILLE*    FAIR      56  54  94 SW13      30.43S
RICHLANDS*     FAIR      60  50  70 SE8       30.39F
WISE*          FAIR      63  50  63 S17G24    30.36F
ABINGDON*      FAIR      61  52  73 SW3       30.38S
$$

MDZ021>025-VAZ099-100-210500-
SOUTHERN MARYLAND AND THE DELMARVA PENINSULA

CITY           SKY/WX    TMP DP  RH WIND       PRES   REMARKS
PATUXENT RIVER FAIR      49  49 100 VRB3      30.37F
BAY BRIDGE APT FAIR      59  57  94 S13G21    30.34S
LEONARDTOWN    FAIR      61  59  94 SW7       30.39S
DOVER          FAIR      61  60  97 S10       30.35F
GEORGETOWN     CLOUDY    65  61  87 S9        30.38F
EASTON         FAIR      61  59  94 S8        30.40S
CAMBRIDGE        N/A     59  59 100 S6        30.38S
SALISBURY      MOCLDY    63  62  97 S7        30.39F
OCEAN CITY     FOG       55  55 100 S7        30.41S VSB 3/4
WALLOPS ISLAND FOG      N/A N/A N/A S9        30.42S VSB 3/4
ACCOMACK*      FAIR      59  59  99 S9        30.42S
$$

NCZ012>017-030>032-210500-
NORTH CENTRAL AND EASTERN NORTH CAROLINA

CITY           SKY/WX    TMP DP  RH WIND       PRES   REMARKS
ROANOKE RAPIDS NOT AVBL
RALEIGH        FAIR      66  61  84 S8        30.44S
ELIZABETH CITY FAIR      66  65  96 S9        30.47R
AHOSKIE*       FAIR      64  64  99 S5        30.45S
EDENTON*       FAIR      65  63  94 S7        30.47F
CURRITUCK*     FAIR      62  60  94 S3        30.47S
KILL DEVIL HLS FAIR     N/A N/A N/A CALM      30.47S HAZE
MANTEO         MOCLDY    60  60 100 S5        30.49S FOG
CAPE HATTERAS  FAIR      64  63  96 S5        30.49S
TARBORO*       NOT AVBL
GOLDSBORO      FAIR      66  64  93 S3        30.44S
WASHINGTON     FAIR      65  64  96 S3        30.47S
GREENVILLE     FAIR      66  64  94 S7        30.46S
NEW BERN       MOCLDY    67  66  97 S5        30.48S
WILMINGTON     FOG       63  63 100 CALM      30.47S VSB 1/2
$$

VAZ048-210500-
ELSEWHERE

CITY           SKY/WX    TMP DP  RH WIND       PRES   REMARKS
HARRISBURG PA  FAIR      53  48  83 S7        30.28S
BALTIMORE      FAIR      56  56 100 SE6       30.32S
ANNAPOLIS      MOCLDY    54  54 100 S7        30.34S FOG
ANDREWS AFB    CLEAR     63  57  81 S13       30.33F
PHILADELPHIA   FAIR      59  56  89 S9        30.34F
HENDERSON NC   CLOUDY    62  58  88 S5        30.43S
GREENSBORO     CLOUDY    59  59 100 S3        30.41F
ROCKY MOUNT    FAIR      63  62  97 S5        30.45S
$$

VAZ100-210500-
MARINE

STATION/POSITION TIME  TEMP    WIND        PRES    WAVE   SWELL
                       AIR SEA DIR/SP/G            HT/PER HT/PER
                 (UTC) (F)     (DEG/KT/KT) (MB)    (FT/S) (FT/S)
BRANDYWINE LGT   0342   60     190/ 16/ 17 1028.9S
CAPE MAY NJ      0348   56 44  170/  8/ 12 1028.4F
LEWES DE         0342   66 42  210/  5/ 11 1028.6F
15NM E FENWICK I 0350   45 42  190/ 10/ 10 1030.2F   3/12   2/12
OCEAN-CITY-INLET 0348   45 41  210/ 11/ 12 1030.2F
WACHAPREAGUE VA  0348   52 51  210/  5/  7 1030.3R
GOOSES REEF MD   0400   45 40  160/ 12/ 14 1028.4    1/ 3
COVE POINT MD    0348   47     180/ 11/ 13 1028.9F
SOLOMONS ISLAND  0348   55 43  130/  5/  6 1028.0F
BISHOPS HEAD MD  0348   51 53  160/  9/ 12 1029.4F
PINEY POINT MD   0348          150/  5/  5   N/A
POTOMAC MD       0400   49 43   30/  8/ 10 1028.4
CAMBRIDGE MD     0348   60 46              1029.3F
LEWISETTA VA     0348   64 49  220/ 10/ 12 1028.7F
RAPPAHANNOCK LGT 0348          190/ 15/ 16 1030.5F
STINGRAY PT      0400   46 43  210/  4/  6 1030.6    0
YORK RVR RNG VA  0348   55     200/ 13/ 14 1030.7S
YORKTOWN VA      0348   60 45  190/  6/  8 1029.8F
DOMINION TERM VA 0348   60     200/  7/  9 1030.8R
KIPTOPEKE VA     0342      44  170/  6/  7   N/A
CAPE HENRY VA    0348   67     190/  8/ 11   N/A
S CRANEY ISL VA  0348   64     200/  8/ 12 1030.5R
CAPE HENRY BUOY  0330      46                N/A     3/13   2/13
1ST LANDING BUOY 0400   53 41  200/ 10/ 12 1030.7    2/ 4
CAPE CHARLES BUO 0351      44                N/A     3/12   2/12
64NM E OF VA BCH 0350   57 53  200/ 12/ 14 1032.4R   4/12   3/12
DUCK PIER NC     0348   65 44  180/ 11/ 13 1031.5R
44100 DUCK FRF   0345      46                N/A     3/12   2/12
44056 DUCK FRF   0400      46                N/A     3/11   2/11
OREGON INLET NC  0342   59 58  180/  5/  6 1032.5R
HATTERAS NC      0348   65 58  170/  5/  7 1032.4R
DIAMOND SHLS NC  0350   72 71  180/ 12/ 16 1032.9R
$$



USA.gov is the U.S. government's official web portal to all federal, state and local government web resources and services.